GFSNE_700_spd_237.txt.gz
Wind_Speed
25 26 29 31 34 37 39 40 40 40 40 37 38 41 40 35 36 35 35 34 35 37 39 40 43 45 46 48 50 51 52 52 54 57 59 61 65 65
27 28 31 34 37 38 38 39 40 39 40 38 36 36 35 34 34 32 32 33 34 36 37 39 41 42 44 47 50 52 54 54 53 53 54 57 57 58
28 30 32 36 39 39 39 39 38 37 36 32 34 34 34 34 32 32 32 34 35 37 38 39 40 41 42 44 47 50 51 51 52 51 51 52 56 56
30 31 35 36 37 37 37 36 35 35 33 31 31 32 32 32 32 32 32 35 37 39 40 42 42 44 46 47 49 50 52 52 52 52 53 54 52 53
31 33 35 35 35 34 34 33 32 31 31 30 29 29 30 30 30 32 34 35 38 40 42 44 47 47 47 47 48 50 52 51 48 49 52 54 57 57
32 34 34 33 32 31 30 29 27 27 28 28 28 28 29 29 31 33 33 34 36 38 43 43 44 44 46 48 49 49 47 43 42 42 46 51 54 51
32 32 31 29 28 27 26 24 23 25 25 25 26 27 29 30 32 33 34 35 38 41 41 41 41 43 44 44 42 41 38 31 30 32 34 39 33 26
30 29 27 24 24 23 21 22 22 22 22 23 26 26 29 31 33 33 31 34 37 38 40 40 41 41 41 39 35 31 28 25 19 20 19 13 14 17
27 24 22 22 20 19 20 20 19 20 22 23 25 28 30 32 32 31 32 33 36 36 36 36 36 35 34 28 26 22 15 11 7 12 12 8 21 24
22 20 20 17 17 18 19 18 18 19 21 23 25 28 30 31 30 31 33 33 34 34 34 32 30 29 26 21 22 12 11 9 9 2 3 9 7 7
19 18 16 15 16 18 16 16 18 20 21 23 25 27 28 29 29 31 31 31 31 32 29 28 26 24 21 15 15 15 13 10 8 8 8 7 8 10
18 16 15 15 17 16 15 16 18 20 21 22 24 26 26 27 29 30 30 28 28 27 26 23 21 19 18 15 13 13 10 7 3 3 2 2 5 10
16 15 15 16 15 13 15 16 17 19 21 22 24 25 27 27 27 27 26 25 24 24 24 21 18 17 16 16 14 13 12 10 8 6 4 6 8 9
16 15 15 14 13 14 15 16 17 18 19 21 23 24 26 25 25 24 23 22 21 21 20 18 16 16 15 14 14 13 13 12 11 12 11 12 12 12
19 16 15 13 14 15 16 17 18 18 18 19 21 25 24 24 22 20 19 18 17 18 18 17 15 14 13 12 11 10 10 9 9 9 10 12 13 15
22 17 16 15 16 17 17 18 19 18 18 19 21 24 24 23 22 19 16 16 15 15 15 15 15 14 12 11 10 9 9 7 6 6 6 5 5 4
21 18 17 17 18 18 18 20 20 20 19 20 23 25 23 22 20 17 15 13 13 13 14 13 13 12 12 12 11 11 10 9 9 8 8 8 8 7
19 17 17 18 19 19 20 21 21 21 21 22 24 25 23 22 20 17 13 12 11 11 11 11 10 10 10 10 10 9 9 9 8 8 8 7 7 6
21 20 19 19 20 20 21 22 22 21 21 22 23 23 22 21 20 18 14 12 13 11 11 11 11 10 9 9 9 8 7 7 7 7 7 7 6 7
21 21 21 21 20 20 22 23 22 20 21 21 21 23 22 20 19 18 16 14 14 13 12 12 12 12 13 12 10 9 9 8 8 8 9 10 10 10
22 22 21 22 21 21 22 21 20 20 20 20 20 21 21 19 18 17 18 17 16 15 14 14 14 15 14 15 13 12 12 12 12 12 13 13 14 15
20 21 21 22 21 22 21 19 18 18 16 17 20 20 19 19 18 18 17 18 18 17 16 16 16 17 17 16 16 16 15 16 16 17 17 18 18 19
19 21 22 21 22 22 18 16 16 14 16 19 20 19 19 20 20 20 18 18 19 19 19 18 18 19 19 19 19 19 18 19 20 20 19 20 23 23

GFSNE_700_spd_243.txt.gz
Wind_Speed
24 22 22 21 21 22 24 25 26 27 32 34 34 33 35 33 33 34 34 37 38 38 36 38 40 41 42 44 47 49 50 49 50 52 53 53 52 51
27 24 23 22 24 25 27 28 28 29 32 32 32 31 30 30 33 33 33 34 36 35 38 38 40 41 43 45 48 49 50 52 53 55 56 56 56 55
29 27 26 26 27 29 29 29 29 30 30 32 31 30 28 29 30 29 30 32 34 35 37 37 40 41 43 45 48 49 51 54 56 58 59 61 61 58
29 29 29 29 30 31 29 28 29 29 29 30 29 28 27 27 27 27 28 30 32 34 36 36 40 42 44 47 48 51 53 56 56 56 60 57 53 52
31 31 32 31 31 28 28 29 29 28 28 28 27 26 26 26 27 26 27 29 32 36 38 40 42 44 45 46 49 49 49 49 49 45 46 42 38 36
33 33 31 30 28 27 28 29 29 28 27 26 25 24 24 25 26 23 26 30 32 34 37 39 41 41 43 46 46 45 42 39 38 43 43 31 28 28
34 32 31 28 26 26 27 32 31 28 26 24 23 22 21 25 24 24 26 28 32 34 37 37 37 40 43 44 42 38 35 34 32 36 40 40 22 16
33 32 29 26 24 25 30 32 28 25 23 22 21 20 22 23 23 25 29 28 29 31 33 35 38 39 41 40 38 34 30 29 25 27 32 35 34 25
33 31 28 26 23 26 31 28 25 23 21 20 18 20 22 22 23 25 26 28 30 32 32 35 37 38 38 36 34 31 28 26 21 21 21 24 29 23
34 31 30 27 23 28 27 26 25 21 20 18 18 22 22 22 22 21 24 27 29 31 32 33 35 36 35 33 32 29 26 23 20 17 17 17 20 21
34 32 32 29 22 26 25 23 22 20 18 17 19 21 22 21 21 23 25 26 28 29 30 32 33 34 32 29 28 27 24 21 19 17 14 14 14 15
35 37 37 29 21 25 23 21 20 19 17 18 19 21 21 21 21 23 26 28 29 28 28 29 31 31 30 28 26 24 22 19 17 16 15 14 14 13
39 41 35 18 22 23 22 19 18 16 19 19 18 21 22 22 23 25 26 27 26 27 27 28 29 28 26 25 25 22 20 19 16 14 14 14 14 14
42 39 22 20 24 24 21 18 16 17 20 18 19 22 22 22 24 25 26 27 26 26 26 26 26 24 23 23 23 22 20 18 17 17 14 13 13 11
41 30 18 23 24 22 18 17 16 20 20 19 20 23 23 22 24 25 24 24 25 24 23 23 24 20 19 20 21 20 18 17 17 17 16 14 14 15
36 23 21 26 24 21 20 18 18 22 20 21 22 24 24 23 23 23 23 23 24 23 20 20 20 19 17 18 18 19 18 18 18 17 16 17 16 15
33 22 27 25 24 22 20 19 22 21 20 22 23 24 23 22 22 22 21 22 21 20 20 18 17 18 18 17 17 17 17 16 15 14 14 14 13 13
28 26 25 27 25 22 21 22 22 20 20 22 23 24 22 20 19 20 21 22 20 18 16 17 16 17 17 17 17 16 16 15 15 13 12 13 13 12
27 27 27 27 24 22 24 24 22 21 21 20 22 22 18 18 16 18 19 21 20 19 16 17 16 16 16 17 17 18 17 16 15 14 14 13 12 12
33 26 27 25 24 24 27 24 22 22 20 20 20 18 16 15 16 17 19 20 21 19 16 18 17 17 17 17 17 18 18 18 17 16 16 15 14 14
21 26 27 26 24 28 27 23 23 21 20 19 18 16 15 13 17 18 20 21 21 18 16 16 17 18 18 17 17 19 20 19 18 18 18 18 18 17
28 29 28 26 27 25 24 23 22 21 20 18 17 15 13 16 19 19 20 21 19 18 17 17 17 18 19 19 18 18 20 21 20 21 20 20 20 20
29 29 25 27 26 24 23 22 21 21 19 17 16 13 14 19 18 18 19 17 17 17 17 16 18 19 20 20 21 20 20 20 20 22 22 22 21 21

GFSNE_700_spd_246.txt.gz
Wind_Speed
25 23 23 21 21 20 20 23 27 30 31 34 35 35 37 36 35 35 36 36 34 34 36 38 39 41 44 45 44 45 48 51 54 56 59 61 60 61
25 24 28 23 22 23 24 25 25 27 30 33 35 35 35 34 33 33 34 34 33 34 35 36 39 41 42 43 45 47 51 53 54 56 57 59 62 64
28 27 28 25 23 25 25 25 25 28 31 32 34 33 33 31 30 30 29 31 32 33 34 36 38 39 40 44 46 48 48 51 53 55 59 59 56 58
30 28 29 27 26 25 25 25 27 29 30 31 30 31 29 27 26 27 27 28 30 32 33 36 37 39 40 42 44 44 48 50 53 53 53 50 45 50
33 32 29 29 27 26 27 27 28 28 30 29 29 28 25 23 23 25 27 27 29 31 33 34 35 37 38 41 43 44 46 49 48 46 41 47 47 43
32 38 32 30 29 28 29 29 27 26 28 28 28 25 23 22 23 24 25 27 29 31 32 32 33 36 38 40 42 43 44 45 44 39 34 40 48 47
35 38 33 32 30 30 30 28 26 27 28 28 25 23 22 22 22 22 23 25 26 29 32 33 33 34 36 38 40 42 43 43 40 32 28 28 38 36
34 37 35 33 32 32 31 28 27 27 29 25 22 21 21 21 21 22 23 24 26 29 31 32 32 34 36 37 40 41 41 41 34 28 24 22 25 30
34 39 37 35 34 33 31 29 26 26 27 24 21 20 20 20 23 25 25 25 27 28 31 32 31 33 34 36 37 38 39 37 31 26 22 20 19 21
38 41 38 37 35 34 32 30 24 25 25 21 19 19 18 20 23 24 25 27 29 31 30 30 31 32 33 34 33 34 36 34 29 26 21 19 19 16
44 43 40 38 35 35 34 30 30 24 22 19 20 19 17 20 23 22 24 27 28 28 29 29 30 30 30 31 30 31 32 30 27 24 22 18 18 18
46 42 41 39 38 38 37 38 20 20 21 18 19 19 19 20 21 21 25 27 28 28 28 28 27 27 28 28 26 27 27 27 25 23 22 19 17 18
43 40 39 39 38 40 41 27 22 21 19 18 18 19 19 20 20 23 25 27 27 27 25 25 25 25 25 24 24 23 23 23 23 22 21 20 18 16
40 39 40 39 41 40 39 20 20 22 19 18 16 19 19 21 21 23 26 26 25 23 22 23 22 21 21 21 22 22 21 22 22 22 23 22 21 18
41 40 41 42 42 40 27 20 23 22 20 17 16 19 20 22 21 22 25 25 23 22 22 21 19 19 19 19 19 18 18 18 20 20 20 20 19 20
44 45 45 44 42 33 23 23 24 23 19 17 18 19 21 21 21 21 22 23 21 20 19 18 17 17 16 18 18 17 17 16 16 16 17 16 18 18
47 47 44 44 42 29 24 24 26 22 19 17 19 21 21 21 21 20 19 19 21 19 18 18 17 17 17 18 18 18 17 16 15 15 16 16 16 16
44 41 42 43 35 23 25 25 26 22 20 19 22 21 21 20 20 19 17 17 17 18 17 19 18 18 18 19 19 18 16 16 16 16 16 16 16 16
40 36 41 44 24 25 26 28 26 22 19 24 22 21 21 19 18 18 17 18 18 17 16 20 19 17 18 20 20 20 19 18 18 18 18 17 17 17
39 43 47 30 25 27 28 29 25 20 25 24 23 21 20 18 17 16 17 18 19 17 18 21 21 19 19 20 21 22 21 20 20 19 20 20 20 20
37 47 43 30 30 25 29 28 23 26 26 24 22 21 19 18 17 16 18 19 18 17 19 20 20 21 20 20 21 22 23 22 21 22 22 23 23 22
46 51 39 31 26 28 30 25 27 28 26 23 22 21 19 18 17 18 19 19 17 17 18 18 19 21 21 21 22 22 23 24 22 24 24 24 24 23
52 42 34 30 29 30 29 28 28 26 25 23 21 20 19 18 17 19 19 18 15 16 17 19 20 21 21 22 23 23 22 22 23 25 26 26 26 25

GFSNE_700_spd_249.txt.gz
Wind_Speed
34 33 29 25 23 26 27 26 25 27 25 27 30 32 34 36 38 38 37 35 34 34 34 35 37 38 40 42 43 44 44 46 47 49 53 54 57 57
38 35 28 30 25 23 28 28 26 26 27 28 30 33 34 36 38 37 36 34 33 32 33 34 36 37 39 41 42 43 44 47 49 50 52 55 56 56
40 36 29 30 28 28 28 28 27 27 28 30 32 33 34 36 36 35 34 32 31 30 32 33 35 37 39 40 41 42 45 47 46 49 51 52 53 53
41 38 31 28 30 30 29 28 28 28 29 31 32 33 33 34 34 32 31 30 29 29 31 33 36 38 39 40 41 43 45 44 45 47 48 48 43 47
44 42 34 35 28 30 29 29 29 29 29 30 31 32 31 32 31 29 28 27 27 28 31 33 36 37 39 39 41 43 43 43 44 44 44 41 34 40
47 51 34 36 31 31 30 31 31 30 29 30 30 30 29 29 28 26 25 24 26 27 29 31 36 38 38 39 40 41 41 41 42 42 40 35 29 31
51 43 35 33 33 34 31 32 32 30 30 30 28 27 29 27 24 24 23 23 24 26 28 32 35 37 37 38 39 40 39 40 40 39 36 31 26 24
43 32 30 39 34 35 33 33 32 31 30 29 27 27 28 26 22 22 21 22 22 25 28 32 33 34 35 36 37 37 37 38 37 35 33 29 24 20
60 32 36 37 30 36 35 34 33 31 31 29 27 31 27 23 21 20 19 20 22 24 28 29 32 33 34 34 34 34 34 35 35 34 31 28 24 19
33 34 33 32 30 36 35 34 34 32 31 30 32 28 23 21 20 19 17 19 22 23 26 28 30 31 30 31 31 31 31 32 33 32 30 26 23 21
37 36 35 35 33 36 38 36 33 33 33 34 31 24 21 21 20 17 18 20 22 23 25 27 28 28 27 27 28 28 28 28 30 31 29 27 24 22
42 41 36 35 35 40 39 34 32 32 34 34 23 23 21 20 18 17 19 21 22 24 24 26 26 25 25 23 24 24 24 24 27 27 27 26 26 24
47 46 41 39 41 42 35 34 32 36 33 32 24 22 20 17 17 17 19 20 22 23 23 23 24 23 22 20 20 19 19 21 23 24 25 25 24 25
46 43 44 43 47 41 32 35 36 34 34 20 22 21 18 17 17 19 19 20 21 21 21 21 21 21 19 18 19 18 16 17 18 20 22 22 23 23
47 46 40 47 44 31 36 41 34 33 26 19 21 21 19 18 18 20 20 20 20 20 19 18 18 19 18 17 17 17 17 16 18 20 20 20 19 19
44 43 47 41 37 38 39 39 32 31 19 22 24 23 19 18 19 20 20 20 19 18 16 16 19 19 18 17 18 18 18 18 19 21 21 22 21 20
46 52 52 52 45 48 46 36 30 27 22 22 25 21 19 18 21 19 19 20 19 17 15 16 19 19 17 16 18 20 19 19 20 21 21 21 22 22
45 50 50 52 50 43 39 30 33 21 22 25 25 22 18 22 22 19 18 19 20 16 17 17 18 20 17 17 19 21 21 22 22 23 23 22 22 22
45 51 45 49 43 39 31 33 24 23 25 28 26 21 20 23 22 19 18 18 19 17 18 19 19 20 17 18 20 21 22 22 24 23 23 24 23 23
35 41 39 39 43 32 37 33 28 30 27 29 25 21 22 23 22 19 18 19 19 18 18 19 21 19 17 18 20 22 23 24 24 25 26 25 24 25
36 37 38 40 38 37 38 32 32 29 28 28 22 23 22 25 21 20 20 21 19 18 19 20 20 18 17 19 21 23 23 23 23 24 25 26 26 25
36 34 37 38 39 37 38 36 33 30 30 26 23 24 25 24 20 20 22 21 19 19 19 20 19 18 18 19 21 23 24 24 24 24 25 25 26 26
34 35 40 43 41 41 38 34 31 31 30 23 26 24 25 22 19 22 21 21 20 19 20 19 18 19 19 20 22 23 23 23 24 25 28 28 28 27

GFSNE_700_spd_252.txt.gz
Wind_Speed
34 34 34 35 33 32 27 27 25 28 29 30 27 25 25 28 30 31 32 32 33 32 31 30 30 31 34 36 38 40 42 44 44 45 48 47 48 50
39 37 37 39 36 34 33 30 26 29 30 31 27 26 27 29 31 32 32 32 31 30 29 29 30 32 34 36 38 41 43 43 44 46 46 45 46 45
43 42 40 41 40 37 31 34 29 30 31 30 28 28 29 30 31 32 31 32 30 29 29 29 31 32 33 36 38 40 42 43 45 45 43 43 43 42
47 47 45 44 43 42 37 33 32 31 32 29 29 29 30 31 32 31 31 32 29 28 28 28 30 32 34 36 38 40 42 45 44 42 41 42 39 35
47 50 48 48 47 43 41 33 34 32 31 29 30 30 30 30 30 31 32 29 27 27 27 28 29 32 34 36 38 40 42 43 42 40 39 38 35 30
47 47 48 49 49 46 41 36 34 30 32 30 31 30 30 30 30 30 29 28 26 25 26 28 29 32 34 35 37 39 40 39 38 36 36 35 31 26
39 41 48 55 51 52 50 29 32 33 34 31 32 30 30 29 28 30 28 26 24 24 26 27 29 31 33 34 37 38 36 36 34 34 34 32 29 25
41 45 48 60 35 54 47 42 34 39 35 31 30 30 29 29 30 29 25 24 22 24 24 25 28 30 31 33 34 33 32 32 30 32 33 31 30 27
49 48 44 48 44 54 31 37 32 39 33 31 30 29 29 30 33 26 23 23 22 22 23 24 27 28 29 30 29 29 28 27 27 29 31 31 32 29
49 56 40 39 36 35 35 34 30 36 31 32 29 29 31 32 29 24 22 23 22 21 21 23 25 26 28 26 24 24 25 23 24 26 29 31 31 29
36 33 24 28 30 23 28 28 31 34 33 32 29 30 30 32 23 23 23 23 21 20 20 21 23 25 24 22 20 22 21 19 20 23 27 29 30 30
30 26 30 32 31 28 28 27 33 35 32 30 32 36 28 24 24 24 22 21 19 19 19 20 22 22 20 18 18 20 19 16 16 17 21 24 26 27
40 36 37 35 34 35 34 35 38 34 32 33 38 31 27 25 25 23 22 20 18 18 17 19 21 18 17 16 17 19 19 17 15 16 18 18 20 22
37 37 38 37 39 43 46 46 41 42 47 36 37 24 22 24 24 23 20 18 18 17 17 19 18 15 15 15 17 17 18 18 17 17 19 21 22 23
29 37 33 42 47 45 48 48 44 45 46 31 32 21 22 26 24 22 20 18 17 16 16 18 15 14 14 15 17 18 17 17 18 20 20 20 20 22
36 42 31 42 55 58 48 45 42 45 36 35 32 24 25 24 25 22 18 19 18 16 16 17 15 14 15 17 17 17 18 18 18 20 22 23 23 24
34 38 32 35 43 51 46 50 45 43 42 28 30 23 24 26 25 21 19 20 18 17 17 17 15 15 16 17 18 18 18 19 18 20 22 24 25 25
31 37 35 32 37 45 47 44 44 49 35 33 30 26 24 26 24 21 19 20 19 19 18 18 16 16 17 18 18 19 19 19 19 21 22 24 25 25
30 31 35 27 24 32 39 37 40 38 31 35 28 26 24 27 24 20 18 22 21 20 19 19 18 16 17 19 16 17 19 20 19 20 22 23 24 25
37 33 33 29 27 26 34 34 32 32 31 35 28 29 26 27 24 19 20 24 22 19 20 20 19 18 18 17 16 16 18 19 20 21 22 22 23 24
34 32 32 30 25 23 27 29 29 29 36 35 33 28 28 27 23 21 24 25 22 20 21 21 20 19 19 17 17 16 19 20 21 22 22 22 23 24
36 39 38 32 31 29 29 30 31 34 38 37 32 31 29 28 23 25 27 25 20 23 22 22 20 19 18 17 18 18 19 21 21 20 21 21 23 24
35 33 34 35 36 36 32 33 35 36 39 37 34 29 30 28 24 26 29 24 21 22 21 21 20 17 17 18 19 20 21 21 19 20 20 22 25 28

GFSNE_700_spd_258.txt.gz
Wind_Speed
36 38 39 39 39 38 38 36 35 36 33 32 32 27 26 27 31 28 27 26 27 28 29 29 31 32 29 28 29 29 30 31 33 34 34 32 27 27
37 39 40 41 41 43 41 39 40 38 39 38 36 33 24 26 35 34 30 28 27 28 29 29 32 32 29 27 28 29 29 31 32 32 31 27 26 27
38 38 38 40 43 44 44 44 43 43 40 40 42 40 38 27 31 36 32 30 28 28 29 30 32 32 29 26 28 29 29 31 31 29 26 24 26 27
35 37 38 40 43 44 44 46 46 45 46 43 45 44 43 35 32 39 36 31 28 28 29 30 31 31 27 27 28 28 29 30 28 25 21 24 25 24
35 36 36 41 43 43 45 46 48 48 49 49 48 46 45 44 40 38 35 33 28 28 31 30 31 30 26 27 28 27 27 27 25 22 21 21 22 22
41 40 39 39 40 42 44 44 47 48 49 52 53 52 50 52 43 39 34 30 28 29 31 30 31 29 26 27 27 26 26 25 22 19 18 18 18 19
46 46 44 42 42 43 43 46 46 47 53 55 56 56 57 45 39 35 28 30 28 29 29 30 29 28 26 26 25 25 24 22 19 15 15 15 15 16
49 48 48 47 46 47 47 47 46 46 53 56 58 55 54 49 46 42 31 28 28 28 29 30 29 26 26 24 23 23 21 19 16 13 13 13 13 14
49 49 50 50 51 52 50 48 46 47 51 47 49 41 43 50 50 50 33 26 31 29 34 30 28 26 25 22 23 22 20 17 14 13 13 14 14 15
49 45 50 53 54 52 50 46 43 44 45 44 41 42 46 40 39 35 28 32 31 33 31 29 27 25 23 21 22 22 19 17 14 13 14 15 17 17
48 47 52 53 55 51 45 41 38 47 33 37 37 37 41 38 44 51 38 29 31 32 30 28 25 24 21 21 22 21 18 16 15 15 16 17 18 20
51 53 52 53 51 46 41 33 27 25 27 29 33 30 34 31 34 35 32 37 34 32 28 28 25 22 21 21 22 20 17 17 17 17 17 19 21 21
50 50 47 47 44 41 37 31 28 28 29 27 28 31 36 37 39 39 33 34 35 35 25 28 23 23 22 21 22 20 18 17 17 18 19 20 21 22
47 46 43 42 41 40 38 38 38 36 33 30 31 30 36 37 39 36 38 41 40 31 26 27 24 25 23 23 22 20 18 18 18 18 19 20 20 21
51 44 42 43 43 44 41 41 44 42 38 37 35 38 39 41 45 41 44 43 39 33 28 26 26 27 25 24 22 21 20 19 20 20 20 21 21 20
48 46 45 45 45 44 43 42 44 42 41 47 47 47 55 49 44 46 49 49 34 32 26 28 27 29 25 24 22 22 23 23 22 21 21 21 20 19
45 46 46 46 47 47 47 46 48 45 45 49 50 45 42 59 47 42 46 40 36 30 29 29 30 28 25 24 22 22 24 24 23 22 21 20 19 20
47 47 47 47 48 44 43 44 46 43 46 46 41 35 39 45 42 34 34 34 35 31 30 31 31 28 26 24 23 23 24 23 23 22 21 20 20 20
48 48 48 44 47 43 49 43 47 37 33 37 34 33 29 36 33 29 29 33 35 31 32 33 32 28 26 25 24 24 24 25 24 22 21 21 22 22
50 49 51 47 43 45 43 50 40 34 31 30 30 29 28 31 32 31 34 35 35 33 34 34 30 28 26 24 23 25 25 25 24 23 22 21 23 23
42 42 44 44 44 40 43 40 37 36 36 31 25 26 28 31 32 35 37 37 35 35 35 32 29 29 27 25 24 25 25 25 25 24 23 23 23 23
35 40 37 39 39 44 41 43 35 39 36 31 29 29 30 31 33 36 38 39 38 35 35 33 31 28 27 26 25 24 25 25 25 24 23 24 24 23
30 39 41 34 31 33 37 37 38 41 39 36 32 33 32 34 35 38 41 41 39 36 38 32 32 27 26 26 24 25 25 24 25 25 24 25 23 23

GFSNE_700_spd_261.txt.gz
Wind_Speed
37 37 37 38 38 39 40 44 41 37 36 36 36 35 35 35 29 29 28 33 32 28 30 30 30 28 28 30 29 28 28 29 29 30 31 30 29 26
39 39 39 38 40 41 42 46 43 42 44 42 39 38 37 39 35 36 38 36 38 31 29 30 31 30 29 30 30 29 28 28 29 30 30 29 28 23
37 37 37 38 38 42 42 45 45 44 44 51 43 40 40 41 43 44 44 42 41 35 29 28 31 30 30 30 30 29 29 28 28 29 28 26 23 18
34 35 35 38 38 39 42 43 46 44 43 50 47 40 45 48 47 49 46 51 40 43 31 23 28 31 31 31 30 29 29 28 27 27 26 23 18 17
35 35 33 34 35 35 39 41 43 43 44 47 48 47 50 57 55 56 55 52 47 40 34 25 24 30 31 32 29 29 28 29 26 26 24 20 16 14
40 39 38 38 37 36 37 37 38 40 41 44 47 49 53 56 57 59 61 52 51 45 41 32 25 29 32 31 29 28 28 28 25 24 22 17 14 13
48 47 46 44 43 43 42 42 42 42 41 44 46 49 52 57 61 63 61 43 48 43 43 30 29 28 31 30 29 27 27 27 24 23 21 17 14 13
52 51 51 50 48 49 49 48 47 48 47 45 45 48 49 51 57 66 54 51 41 39 45 30 29 29 33 31 28 27 26 26 24 22 20 17 16 16
53 54 55 54 52 53 53 52 53 53 50 49 47 46 48 47 47 55 48 43 47 54 48 36 29 28 34 28 27 27 25 25 23 21 20 18 18 18
50 53 54 53 51 54 54 54 56 55 52 48 45 43 44 48 32 30 38 39 43 45 43 33 29 30 31 28 27 26 25 25 23 21 21 20 20 20
53 55 56 54 51 51 54 56 58 55 50 43 41 42 45 34 36 41 45 42 41 43 35 31 31 29 31 28 26 25 25 24 22 21 21 21 21 20
56 56 54 51 51 50 53 56 56 51 43 41 39 37 34 32 37 36 38 34 37 36 43 38 33 30 29 26 26 27 25 22 21 22 22 22 22 21
56 53 55 52 50 51 52 53 54 42 42 39 38 37 34 33 34 38 33 35 35 39 35 35 31 28 30 27 26 26 25 23 23 22 22 22 22 22
55 53 50 47 48 48 48 52 50 45 43 42 43 43 38 34 33 30 35 41 41 40 38 38 33 34 34 27 27 26 25 24 24 22 23 24 23 23
57 53 49 45 43 47 49 52 48 45 44 44 45 47 42 39 37 36 37 40 43 43 40 40 37 38 32 26 28 27 26 24 24 24 24 23 24 23
60 56 55 50 49 51 52 52 48 47 45 45 48 50 45 44 47 42 40 46 50 52 40 36 39 39 29 28 26 30 25 25 25 25 26 26 25 24
66 60 59 55 54 56 57 52 49 47 47 48 50 51 50 47 49 57 45 50 52 47 36 38 39 34 30 29 29 28 26 25 25 25 26 27 25 24
65 63 62 59 56 57 53 49 47 46 48 49 52 51 51 52 45 50 37 42 47 40 38 35 34 33 29 29 30 29 26 26 25 25 26 26 25 23
61 65 61 60 56 53 50 48 47 48 48 49 46 51 54 59 52 46 41 40 38 35 33 33 36 32 31 32 30 29 26 26 25 25 26 26 25 26
63 56 57 53 53 51 47 47 46 44 40 46 47 50 49 49 51 48 38 35 37 36 32 34 36 32 33 32 29 28 28 26 26 25 25 26 25 26
51 47 54 52 49 45 45 43 43 45 49 47 50 48 43 41 37 37 34 32 35 34 31 35 28 32 35 31 29 28 27 27 26 25 26 26 25 26
43 48 56 50 45 42 40 42 43 47 45 46 45 46 42 38 35 35 31 31 33 33 37 35 34 32 32 32 31 27 27 26 26 25 26 26 27 26
25 27 31 39 41 43 43 42 42 46 47 45 48 41 37 36 34 33 31 30 32 37 41 37 34 32 33 34 32 28 25 28 26 24 26 27 26 27